Location: Unspecified
(50.7693°N, 0.0000°E)
Time: 10:55:26
(UTC+00:00)

Vanguard 1 Rocket - Pass Details

Date: 23 June 2019
Orbit: 652 x 4224 km, 34.3° (Epoch: 16 August)

Event Time Altitude Azimuth Distance (km) Brightness Sun altitude
Rises 13:50:27 0° 189° (S) 8,309 12.7 55.6°
Reaches altitude 10° 14:00:57 10° 170° (S) 6,776 12.2 54.3°
Maximum altitude 14:09:49 14° 145° (SE) 5,717 11.6 53.2°
Drops below altitude 10° 14:17:02 10° 119° (ESE) 5,367 11.3 52.3°
Sets 14:23:10 0° 98° (E) 5,655 11.2 51.4°
